WetterOnline ( http://www.wetteronline.at )

Wetter aktuell Kassel

Aktuelles Wetter: Schauenburg-Elgershausen (317m)

6-stündlich | Neueste Meldungen
Ortszeit Temperatur Wetter
Do, 24.01. 7:00 -7.8° C bedeckt
Do, 24.01. 1:00 -5.8° C bedeckt
Mi, 23.01. 19:00 -5.2° C bedeckt
Mi, 23.01. 13:00 -4.4° C bedeckt
Mi, 23.01. 7:00 -5.6° C bedeckt
Mi, 23.01. 1:00 -5.5° C bedeckt
Di, 22.01. 19:00 -5.2° C bedeckt
Di, 22.01. 13:00 -4.7° C bedeckt
Ortszeit Temperatur Wetter
Do, 24.01. 11:30 -5.7° C leichter Schneefall
Do, 24.01. 11:20 -5.7° C leichter Schneefall
Do, 24.01. 11:10 -6.0° C leichter Schneefall
Do, 24.01. 11:00 -6.2° C leichter Schneefall
Do, 24.01. 10:50 -6.2° C leichter Schneefall
Do, 24.01. 10:40 -6.2° C leichter Schneefall
Do, 24.01. 10:30 -6.5° C leichter Schneefall
Do, 24.01. 10:00 -6.8° C leichter Schneefall
Do, 24.01. 9:30 -6.9° C leichter Schneefall
Do, 24.01. 9:00 -7.1° C bedeckt
Do, 24.01. 8:30 -7.2° C bedeckt
Ortszeit Relative Feuchte Sichtweite
Do, 24.01. 7:00 83% 5.0 km
Do, 24.01. 1:00 79% 7 km
Mi, 23.01. 19:00 77% 12 km
Mi, 23.01. 13:00 79% 10 km
Mi, 23.01. 7:00 81% 9 km
Mi, 23.01. 1:00 80% 9 km
Di, 22.01. 19:00 81% 11 km
Di, 22.01. 13:00 87% 7 km
Ortszeit Relative Feuchte Sichtweite
Do, 24.01. 11:30 82% 3.5 km
Do, 24.01. 11:20 82% -
Do, 24.01. 11:10 82% -
Do, 24.01. 11:00 83% 4.0 km
Do, 24.01. 10:50 83% -
Do, 24.01. 10:40 83% -
Do, 24.01. 10:30 82% 2.7 km
Do, 24.01. 10:00 83% 5.0 km
Do, 24.01. 9:30 83% -
Do, 24.01. 9:00 82% 7 km
Do, 24.01. 8:30 82% 7 km
Ortszeit Niederschlagsmenge Niederschlagsart
Do, 24.01. 7:00 0.1 l/m2 in 12 Std. Schnee
Do, 24.01. 1:00 0.0 l/m2 in 6 Std. -
Mi, 23.01. 19:00 0.0 l/m2 in 12 Std. -
Mi, 23.01. 13:00 0.0 l/m2 in 6 Std. -
Mi, 23.01. 7:00 0.0 l/m2 in 12 Std. -
Mi, 23.01. 1:00 0.0 l/m2 in 6 Std. -
Di, 22.01. 19:00 0.1 l/m2 in 12 Std. -
Di, 22.01. 13:00 0.1 l/m2 in 6 Std. Schnee
Ortszeit Niederschlagsmenge Niederschlagsart
Do, 24.01. 11:30 0.1 l/m2 in 1 Std. -
Do, 24.01. 11:20 keine Meldung -
Do, 24.01. 11:10 keine Meldung -
Do, 24.01. 11:00 0.1 l/m2 in 1 Std. Schnee
Do, 24.01. 10:50 keine Meldung -
Do, 24.01. 10:40 keine Meldung -
Do, 24.01. 10:30 0.1 l/m2 in 1 Std. -
Do, 24.01. 10:00 0.1 l/m2 in 1 Std. Schnee
Do, 24.01. 9:30 0.1 l/m2 in 1 Std. -
Do, 24.01. 9:00 0.1 l/m2 in 1 Std. Schnee
Do, 24.01. 8:30 0.0 l/m2 in 1 Std. -
Ortszeit Stärke Spitze Richtung
km/h Bft. km/h Grad Sektor
Do, 24.01. 7:00 7 2 18 60° NO
Do, 24.01. 1:00 7 2 18 80° O
Mi, 23.01. 19:00 6 1 17 70° O
Mi, 23.01. 13:00 9 2 20 90° O
Mi, 23.01. 7:00 9 2 28 140° SO
Mi, 23.01. 1:00 11 2 28 150° SO
Di, 22.01. 19:00 13 3 30 150° SO
Di, 22.01. 13:00 15 3 30 160° S
Ortszeit Stärke Spitze Richtung
km/h Bft. km/h Grad Sektor
Do, 24.01. 11:30 4 1 7 300° NW
Do, 24.01. 11:20 4 1 - 300° NW
Do, 24.01. 11:10 4 1 - 290° W
Do, 24.01. 11:00 0 0 4 - -
Do, 24.01. 10:50 2 1 - 200° S
Do, 24.01. 10:40 2 1 - 130° SO
Do, 24.01. 10:30 0 0 4 - -
Do, 24.01. 10:00 4 1 7 170° S
Do, 24.01. 9:30 4 1 7 230° SW
Do, 24.01. 9:00 4 1 7 180° S
Do, 24.01. 8:30 4 1 7 50° NO
Ortszeit Untergrenze Bedeckung Gattung
total tief tief mittel hoch
Do, 24.01. 7:00 210 m 8/8 8/8 - - -
Do, 24.01. 1:00 390 m 8/8 8/8 - - -
Mi, 23.01. 19:00 3600 m 8/8 8/8 - - -
Mi, 23.01. 13:00 330 m 8/8 8/8 - - -
Mi, 23.01. 7:00 360 m 8/8 8/8 - - -
Mi, 23.01. 1:00 360 m 8/8 8/8 - - -
Di, 22.01. 19:00 360 m 8/8 8/8 - - -
Di, 22.01. 13:00 210 m 8/8 8/8 - - -
Ortszeit Bedeckungsgrad in Achtel und Wolkenuntergrenze
Do, 24.01. 11:30 1(660m) 7(990m) 8(1170m)
Do, 24.01. 11:20 1(660m) 7(990m) 8(1170m)
Do, 24.01. 11:10 1(540m) 6(750m) 8(1050m)
Do, 24.01. 11:00 3(570m) 5(750m) 7(900m)
Do, 24.01. 10:50 3(570m) 5(750m) 7(900m)
Do, 24.01. 10:40 2(540m) 7(960m) 8(1260m)
Do, 24.01. 10:30 1(570m) 7(990m) 8(1200m)
Do, 24.01. 10:00 2(720m) 4(900m) 8(1140m)
Do, 24.01. 9:30 3(360m) 3(570m) 7(1110m)
Do, 24.01. 9:00 3(390m) 8(1140m)
Do, 24.01. 8:30 3(420m) 8(1200m)
Ortszeit Luftdruck NN (hPa) Tendenz (hPa in 3 Std.)
Do, 24.01. 7:00 1010 + 1,1
Do, 24.01. 1:00 1007 + 1,6
Mi, 23.01. 19:00 1004 + 1,6
Mi, 23.01. 13:00 1001 - 0,2
Mi, 23.01. 7:00 1002 - 1,0
Mi, 23.01. 1:00 1004 - 1,3
Di, 22.01. 19:00 1007 - 1,4
Di, 22.01. 13:00 1011 - 2,5
Ortszeit Luftdruck NN (hPa) Tendenz (hPa in 3 Std.)
Do, 24.01. 11:30 1012 + 1,3
Do, 24.01. 11:20 1012 keine Meldung
Do, 24.01. 11:10 1012 keine Meldung
Do, 24.01. 11:00 1012 + 1,2
Do, 24.01. 10:50 1012 keine Meldung
Do, 24.01. 10:40 1012 keine Meldung
Do, 24.01. 10:30 1012 + 1,2
Do, 24.01. 10:00 1011 + 1,2
Do, 24.01. 9:30 1011 + 1,2
Do, 24.01. 9:00 1011 + 1,3
Do, 24.01. 8:30 1011 + 1,2
Ortszeit Schneehöhe (cm)
Do, 24.01. 7:00 4
Do, 24.01. 1:00 4
Mi, 23.01. 19:00 4
Mi, 23.01. 13:00 4
Mi, 23.01. 7:00 4
Mi, 23.01. 1:00 3
Di, 22.01. 19:00 3
Di, 22.01. 13:00 3
Ortszeit Schneehöhe (cm)
Do, 24.01. 11:30 4
Do, 24.01. 11:20 4
Do, 24.01. 11:10 4
Do, 24.01. 11:00 4
Do, 24.01. 10:50 4
Do, 24.01. 10:40 4
Do, 24.01. 10:30 4
Do, 24.01. 10:00 4
Do, 24.01. 9:30 4
Do, 24.01. 9:00 4
Do, 24.01. 8:30 4
Link zu dieser Seite / Seite empfehlen

Das Wetter in ...